Time,TemperatureF,DewpointF,PressureIn,WindDirection,WindDirectionDegrees,WindSpeedMPH,WindSpeedGustMPH,Humidity,HourlyPrecipIn,Conditions,Clouds,dailyrainin,SolarRadiationWatts/m^2,SoftwareType,DateUTC
2013-01-19 00:01:00,50.0,-1.0,30.23,East,101,0.0,-999.0,12,-99.99,,,0.00,0,weatherlink.com 1.10,2013-01-19 08:01:00,
2013-01-19 00:17:00,49.7,-1.0,30.22,East,82,1.0,-999.0,12,-99.99,,,0.00,0,weatherlink.com 1.10,2013-01-19 08:17:00,
2013-01-19 00:32:00,49.8,1.0,30.23,SE,132,2.0,-999.0,13,-99.99,,,0.00,0,weatherlink.com 1.10,2013-01-19 08:32:00,
2013-01-19 00:47:00,50.2,1.0,30.22,East,96,4.0,-999.0,13,-99.99,,,0.00,0,weatherlink.com 1.10,2013-01-19 08:47:00,
2013-01-19 01:02:00,50.1,1.0,30.23,NE,46,2.0,-999.0,13,-99.99,,,0.00,0,weatherlink.com 1.10,2013-01-19 09:02:00,
2013-01-19 01:17:00,50.0,1.0,30.23,East,94,4.0,-999.0,13,-99.99,,,0.00,0,weatherlink.com 1.10,2013-01-19 09:17:00,
2013-01-19 01:32:00,50.2,1.0,30.23,ESE,104,1.0,-999.0,13,-99.99,,,0.00,0,weatherlink.com 1.10,2013-01-19 09:32:00,
2013-01-19 01:47:00,50.3,-1.0,30.23,SSE,149,2.0,-999.0,12,-99.99,,,0.00,0,weatherlink.com 1.10,2013-01-19 09:47:00,
2013-01-19 02:02:00,51.0,0.0,30.23,East,94,4.0,-999.0,12,-99.99,,,0.00,0,weatherlink.com 1.10,2013-01-19 10:02:00,
2013-01-19 02:17:00,51.0,0.0,30.23,East,93,7.0,-999.0,12,-99.99,,,0.00,0,weatherlink.com 1.10,2013-01-19 10:17:00,
2013-01-19 02:32:00,51.1,-2.0,30.23,SE,126,7.0,-999.0,11,-99.99,,,0.00,0,weatherlink.com 1.10,2013-01-19 10:32:00,
2013-01-19 02:47:00,50.9,-2.0,30.23,East,100,1.0,-999.0,11,-99.99,,,0.00,0,weatherlink.com 1.10,2013-01-19 10:47:00,
2013-01-19 03:02:00,50.1,-3.0,30.23,SE,126,0.0,-999.0,11,-99.99,,,0.00,0,weatherlink.com 1.10,2013-01-19 11:02:00,
2013-01-19 04:48:00,49.6,-5.0,30.23,ESE,102,1.0,-999.0,10,-99.99,,,0.00,0,weatherlink.com 1.10,2013-01-19 12:48:00,
2013-01-19 05:03:00,50.0,-5.0,30.23,East,84,3.0,-999.0,10,-99.99,,,0.00,0,weatherlink.com 1.10,2013-01-19 13:03:00,
2013-01-19 05:18:00,50.0,-5.0,30.23,SSE,161,0.0,-999.0,10,-99.99,,,0.00,0,weatherlink.com 1.10,2013-01-19 13:18:00,
2013-01-19 05:33:00,49.7,-5.0,30.24,SE,124,1.0,-999.0,10,-99.99,,,0.00,0,weatherlink.com 1.10,2013-01-19 13:33:00,
2013-01-19 05:48:00,49.5,-5.0,30.24,SSE,164,1.0,-999.0,10,-99.99,,,0.00,0,weatherlink.com 1.10,2013-01-19 13:48:00,
2013-01-19 06:03:00,49.4,-5.0,30.24,East,94,13.0,-999.0,10,-99.99,,,0.00,0,weatherlink.com 1.10,2013-01-19 14:03:00,
2013-01-19 06:18:00,49.2,-6.0,30.24,East,96,4.0,-999.0,10,-99.99,,,0.00,0,weatherlink.com 1.10,2013-01-19 14:18:00,
2013-01-19 06:33:00,48.9,-6.0,30.25,South,172,2.0,-999.0,10,-99.99,,,0.00,0,weatherlink.com 1.10,2013-01-19 14:33:00,
2013-01-19 06:48:00,49.2,-6.0,30.25,East,90,4.0,-999.0,10,-99.99,,,0.00,0,weatherlink.com 1.10,2013-01-19 14:48:00,
2013-01-19 07:04:00,49.0,-6.0,30.26,ESE,102,0.0,-999.0,10,-99.99,,,0.00,5,weatherlink.com 1.10,2013-01-19 15:04:00,
2013-01-19 07:19:00,49.1,-6.0,30.26,East,93,4.0,-999.0,10,-99.99,,,0.00,12,weatherlink.com 1.10,2013-01-19 15:19:00,
2013-01-19 07:34:00,49.4,-5.0,30.27,South,170,1.0,-999.0,10,-99.99,,,0.00,18,weatherlink.com 1.10,2013-01-19 15:34:00,
2013-01-19 07:49:00,50.0,-5.0,30.27,ESE,116,4.0,-999.0,10,-99.99,,,0.00,19,weatherlink.com 1.10,2013-01-19 15:49:00,
2013-01-19 08:04:00,50.7,-7.0,30.27,East,85,1.0,-999.0,9,-99.99,,,0.00,25,weatherlink.com 1.10,2013-01-19 16:04:00,
2013-01-19 08:19:00,51.6,-6.0,30.27,SSE,164,7.0,-999.0,9,-99.99,,,0.00,25,weatherlink.com 1.10,2013-01-19 16:19:00,
2013-01-19 08:34:00,52.1,-6.0,30.29,East,79,3.0,-999.0,9,-99.99,,,0.00,25,weatherlink.com 1.10,2013-01-19 16:34:00,
2013-01-19 08:49:00,52.7,-7.0,30.29,ESE,114,7.0,-999.0,8,-99.99,,,0.00,32,weatherlink.com 1.10,2013-01-19 16:49:00,
2013-01-19 09:04:00,53.2,-5.0,30.30,East,94,4.0,-999.0,9,-99.99,,,0.00,190,weatherlink.com 1.10,2013-01-19 17:04:00,
2013-01-19 09:34:00,54.4,-6.0,30.31,East,95,7.0,-999.0,8,-99.99,,,0.00,144,weatherlink.com 1.10,2013-01-19 17:34:00,
2013-01-19 09:49:00,54.9,-6.0,30.30,East,89,6.0,-999.0,8,-99.99,,,0.00,348,weatherlink.com 1.10,2013-01-19 17:49:00,
2013-01-19 10:04:00,55.7,-5.0,30.30,ENE,71,2.0,-999.0,8,-99.99,,,0.00,434,weatherlink.com 1.10,2013-01-19 18:04:00,
2013-01-19 10:20:00,56.1,-5.0,30.30,East,89,6.0,-999.0,8,-99.99,,,0.00,475,weatherlink.com 1.10,2013-01-19 18:20:00,
2013-01-19 10:35:00,56.6,-7.0,30.30,East,93,6.0,-999.0,7,-99.99,,,0.00,552,weatherlink.com 1.10,2013-01-19 18:35:00,
2013-01-19 10:50:00,57.0,-7.0,30.29,East,96,2.0,-999.0,7,-99.99,,,0.00,566,weatherlink.com 1.10,2013-01-19 18:50:00,
2013-01-19 11:05:00,57.6,-7.0,30.28,ESE,112,1.0,-999.0,7,-99.99,,,0.00,587,weatherlink.com 1.10,2013-01-19 19:05:00,
2013-01-19 11:20:00,57.4,-7.0,30.26,East,90,5.0,-999.0,7,-99.99,,,0.00,585,weatherlink.com 1.10,2013-01-19 19:20:00,
2013-01-19 11:35:00,57.8,-6.0,30.26,East,96,4.0,-999.0,7,-99.99,,,0.00,601,weatherlink.com 1.10,2013-01-19 19:35:00,
2013-01-19 11:50:00,58.3,-9.0,30.25,ENE,73,1.0,-999.0,6,-99.99,,,0.00,615,weatherlink.com 1.10,2013-01-19 19:50:00,
2013-01-19 12:05:00,58.9,-6.0,30.24,SSE,158,5.0,-999.0,7,-99.99,,,0.00,612,weatherlink.com 1.10,2013-01-19 20:05:00,
2013-01-19 12:35:00,60.0,-8.0,30.23,SE,141,2.0,-999.0,6,-99.99,,,0.00,605,weatherlink.com 1.10,2013-01-19 20:35:00,
2013-01-19 12:50:00,60.2,-8.0,30.22,SE,146,4.0,-999.0,6,-99.99,,,0.00,589,weatherlink.com 1.10,2013-01-19 20:50:00,
2013-01-19 13:05:00,60.7,-7.0,30.22,NE,39,3.0,-999.0,6,-99.99,,,0.00,585,weatherlink.com 1.10,2013-01-19 21:05:00,
2013-01-19 13:20:00,60.3,-8.0,30.22,SE,125,7.0,-999.0,6,-99.99,,,0.00,564,weatherlink.com 1.10,2013-01-19 21:20:00,
2013-01-19 13:36:00,60.3,-8.0,30.22,East,90,5.0,-999.0,6,-99.99,,,0.00,506,weatherlink.com 1.10,2013-01-19 21:36:00,
2013-01-19 13:51:00,60.5,-8.0,30.21,NE,38,6.0,-999.0,6,-99.99,,,0.00,517,weatherlink.com 1.10,2013-01-19 21:51:00,
2013-01-19 14:21:00,60.1,-12.0,30.21,East,97,1.0,-999.0,5,-99.99,,,0.00,461,weatherlink.com 1.10,2013-01-19 22:21:00,
2013-01-19 15:21:00,58.8,-9.0,30.20,East,87,5.0,-999.0,6,-99.99,,,0.00,39,weatherlink.com 1.10,2013-01-19 23:21:00,
2013-01-19 15:36:00,58.1,-6.0,30.20,ESE,118,6.0,-999.0,7,-99.99,,,0.00,230,weatherlink.com 1.10,2013-01-19 23:36:00,
2013-01-19 16:21:00,56.4,-7.0,30.21,SE,138,5.0,-999.0,7,-99.99,,,0.00,84,weatherlink.com 1.10,2013-01-20 00:21:00,
2013-01-19 16:36:00,55.3,-5.0,30.21,SE,130,4.0,-999.0,8,-99.99,,,0.00,51,weatherlink.com 1.10,2013-01-20 00:36:00,
2013-01-19 16:51:00,54.7,-6.0,30.21,SE,130,1.0,-999.0,8,-99.99,,,0.00,19,weatherlink.com 1.10,2013-01-20 00:51:00,
2013-01-19 17:06:00,53.3,-5.0,30.21,ESE,119,4.0,-999.0,9,-99.99,,,0.00,7,weatherlink.com 1.10,2013-01-20 01:06:00,
2013-01-19 17:21:00,52.8,-3.0,30.21,East,90,0.0,-999.0,10,-99.99,,,0.00,0,weatherlink.com 1.10,2013-01-20 01:21:00,
2013-01-19 17:37:00,52.3,-3.0,30.22,ESE,108,0.0,-999.0,10,-99.99,,,0.00,0,weatherlink.com 1.10,2013-01-20 01:37:00,
2013-01-19 17:52:00,51.7,-2.0,30.22,East,99,0.0,-999.0,11,-99.99,,,0.00,0,weatherlink.com 1.10,2013-01-20 01:52:00,
2013-01-19 18:07:00,51.9,-3.0,30.22,ENE,77,0.0,-999.0,10,-99.99,,,0.00,0,weatherlink.com 1.10,2013-01-20 02:07:00,
2013-01-19 18:37:00,51.1,-2.0,30.22,East,81,5.0,-999.0,11,-99.99,,,0.00,0,weatherlink.com 1.10,2013-01-20 02:37:00,
2013-01-19 19:07:00,51.4,-2.0,30.23,East,98,4.0,-999.0,11,-99.99,,,0.00,0,weatherlink.com 1.10,2013-01-20 03:07:00,
2013-01-19 19:22:00,51.2,-4.0,30.23,ESE,105,1.0,-999.0,10,-99.99,,,0.00,0,weatherlink.com 1.10,2013-01-20 03:22:00,
2013-01-19 19:37:00,51.3,-4.0,30.23,East,84,2.0,-999.0,10,-99.99,,,0.00,0,weatherlink.com 1.10,2013-01-20 03:37:00,
2013-01-19 19:52:00,50.7,-2.0,30.23,South,179,0.0,-999.0,11,-99.99,,,0.00,0,weatherlink.com 1.10,2013-01-20 03:52:00,
2013-01-19 20:07:00,50.0,-3.0,30.24,East,92,0.0,-999.0,11,-99.99,,,0.00,0,weatherlink.com 1.10,2013-01-20 04:07:00,
2013-01-19 20:22:00,50.1,-3.0,30.24,SSE,147,1.0,-999.0,11,-99.99,,,0.00,0,weatherlink.com 1.10,2013-01-20 04:22:00,
2013-01-19 20:37:00,49.7,-1.0,30.24,East,82,1.0,-999.0,12,-99.99,,,0.00,0,weatherlink.com 1.10,2013-01-20 04:37:00,
2013-01-19 20:53:00,49.8,-1.0,30.24,East,101,0.0,-999.0,12,-99.99,,,0.00,0,weatherlink.com 1.10,2013-01-20 04:53:00,
2013-01-19 21:08:00,49.8,-1.0,30.24,ESE,107,2.0,-999.0,12,-99.99,,,0.00,0,weatherlink.com 1.10,2013-01-20 05:08:00,
2013-01-19 21:23:00,49.1,0.0,30.24,East,84,0.0,-999.0,13,-99.99,,,0.00,0,weatherlink.com 1.10,2013-01-20 05:23:00,
2013-01-19 21:38:00,48.4,-1.0,30.25,East,82,1.0,-999.0,13,-99.99,,,0.00,0,weatherlink.com 1.10,2013-01-20 05:38:00,
2013-01-19 21:53:00,48.2,-1.0,30.25,ENE,74,0.0,-999.0,13,-99.99,,,0.00,0,weatherlink.com 1.10,2013-01-20 05:53:00,
2013-01-19 22:08:00,49.1,-2.0,30.25,SE,138,0.0,-999.0,12,-99.99,,,0.00,0,weatherlink.com 1.10,2013-01-20 06:08:00,
2013-01-19 22:38:00,43.7,3.0,30.25,East,82,0.0,-999.0,18,-99.99,,,0.00,0,weatherlink.com 1.10,2013-01-20 06:38:00,
2013-01-19 22:53:00,43.5,2.0,30.25,East,80,0.0,-999.0,18,-99.99,,,0.00,0,weatherlink.com 1.10,2013-01-20 06:53:00,
2013-01-19 23:08:00,44.4,1.0,30.25,SSE,155,1.0,-999.0,16,-99.99,,,0.00,0,weatherlink.com 1.10,2013-01-20 07:08:00,
2013-01-19 23:23:00,46.9,0.0,30.25,East,95,0.0,-999.0,14,-99.99,,,0.00,0,weatherlink.com 1.10,2013-01-20 07:23:00,
2013-01-19 23:38:00,49.1,-2.0,30.25,ESE,102,0.0,-999.0,12,-99.99,,,0.00,0,weatherlink.com 1.10,2013-01-20 07:38:00,
2013-01-19 23:53:00,43.8,1.0,30.25,NE,50,1.0,-999.0,17,-99.99,,,0.00,0,weatherlink.com 1.10,2013-01-20 07:53:00,